User: anonymous   Login
Location: Unspecified
(0.0000°N, 0.0000°E)
Time: 02:49:46
(UTC+00:00)
Language:

GALILEO-FM4 - Orbit

View from above orbital plane
View from above orbital plane
View from above satellite
View from above satellite

Ground track
Ground track

The orbit data is extracted from the following two-line orbital elements,

1 38858U 12055B   18321.73037456  .00000070  00000-0  00000+0 0  9991
2 38858  54.9141 177.7014 0000226 259.8614 100.2321  1.70473954 37919
Epoch (UTC): 17 November 2018 17:31:44
Eccentricity: 0.0000226
inclination: 54.9141°
perigee height: 23221 km
apogee height: 23222 km
right ascension of ascending node: 177.7014°
argument of perigee: 259.8614°
revolutions per day: 1.70473954
mean anomaly at epoch: 100.2321°
orbit number at epoch: 3791

The dashed part of the orbit path shows where the satellite is in the earth's shadow,  

DLR